Skip Page Navigation
NASA JPL Caltech
NASA Logo - Jet Propulsion Laboratory + View the NASA Portal
+ Center for Near-Earth Object Studies
JPL Home Earth Solar System Stars & Galaxies Technology
JPL Solar System Dynamics
BODIES ORBITS EPHEMERIDES TOOLS PHYSICAL DATA DISCOVERY FAQ SITE MAP
JPL Small-Body Database Browser
Search: [ help ]  
58002 (2002 TM175)
Classification: Main-belt Asteroid          SPK-ID: 2058002
Ephemeris | Orbit Diagram | Orbital Elements | Mission Design | Physical Parameters | Discovery Circumstances | Close-Approach Data ]

[ show orbit diagram ]
Orbital Elements at Epoch 2459396.5 (2021-Jul-01.0) TDB
Reference: JPL 30 (heliocentric ecliptic J2000)
 Element Value Uncertainty (1-sigma)   Units 
e .119053602790132 4.4723e-08  
a 2.743455389516774 1.4965e-08 au
q 2.416837141300797 1.2243e-07 au
i 13.06040761634575 4.2889e-06 deg
node 59.26868247991361 1.9665e-05 deg
peri 149.2396767432502 2.6419e-05 deg
M 208.0574959736757 2.0744e-05 deg
tp 2460097.022452471339
(2023-Jun-01.52245247)
9.8901e-05 TDB
period 1659.75995002682
4.54
1.358e-05
3.718e-08
d
yr
n .216898835276862 1.7747e-09 deg/d
Q 3.07007363773275 1.6746e-08 au
  Orbit Determination Parameters
   # obs. used (total)      1300  
   data-arc span      9001 days (24.64 yr)  
   first obs. used      1996-05-16  
   last obs. used      2021-01-06  
   planetary ephem.      DE441  
   SB-pert. ephem.      SB441-N16  
   condition code      0  
   norm. resid. RMS      .51443  
   source      ORB  
   producer      Otto Matic  
   solution date      2021-Jul-08 22:09:46  

Additional Information
 Earth MOID = 1.41951 au 
 Jupiter MOID = 1.92317 au 
 T_jup = 3.301 
[ show covariance matrix ]

Ephemeris | Orbit Diagram | Orbital Elements | Mission Design | Physical Parameters | Discovery Circumstances | Close-Approach Data ]

Physical Parameter Table
Parameter Symbol Value Units Sigma Reference Notes
absolute magnitude H 14.46   n/a E2021B10  
diameter diameter 3.573 km 0.196 urn:nasa:pds:neowise_diameters_albedos::2.0[mainbelt] (http://adsabs.harvard.edu/abs/2011ApJ...741...68M)  
geometric albedo albedo 0.138   0.022 urn:nasa:pds:neowise_diameters_albedos::2.0[mainbelt] (http://adsabs.harvard.edu/abs/2011ApJ...741...68M)  

58002 (2002 TM175)          Discovered 2002-Oct-04 by LINEAR at Socorro
Reference: 20030318/Numbers.arcLast Updated: 2004-04-19

[ show close-approach data ]
Alternate Designations
 2002 TM175 = 2001 KW41 
Ephemeris | Orbit Diagram | Orbital Elements | Mission Design | Physical Parameters | Discovery Circumstances | Close-Approach Data ]
ABOUT SSD CREDITS/AWARDS PRIVACY/COPYRIGHT GLOSSARY LINKS
FirstGov 2021-Jul-24 09:20 UT
(server date/time)  
NASA Home Page
Site Manager:   Ryan S. Park
Webmaster  Alan B. Chamberlin